TimeEET,TemperatureF,Dew PointF,Humidity,Sea Level PressureIn,VisibilityMPH,Wind Direction,Wind SpeedMPH,Gust SpeedMPH,PrecipitationIn,Events,Conditions,WindDirDegrees,DateUTC
12:20 AM,62.6,62.6,100,29.92,6.2,East,3.5,-,N/A,,Mostly Cloudy,100,2012-10-30 22:20:00
12:50 AM,62.6,60.8,94,29.92,6.2,Variable,3.5,-,N/A,,Mostly Cloudy,0,2012-10-30 22:50:00
1:20 AM,62.6,60.8,94,29.92,6.2,Calm,Calm,-,N/A,,Mostly Cloudy,0,2012-10-30 23:20:00
1:50 AM,60.8,59.0,94,29.89,6.2,Variable,2.3,-,N/A,,Mostly Cloudy,0,2012-10-30 23:50:00
2:00 AM,62,58,84,29.91,6,East,2.3,,,,Scattered Clouds,100,2012-10-31 00:00:00
2:20 AM,60.8,59.0,94,29.89,6.2,Variable,3.5,-,N/A,,Mostly Cloudy,0,2012-10-31 00:20:00
2:50 AM,60.8,57.2,88,29.89,6.2,South,3.5,-,N/A,,Mostly Cloudy,190,2012-10-31 00:50:00
3:20 AM,60.8,57.2,88,29.89,6.2,South,3.5,-,N/A,,Mostly Cloudy,190,2012-10-31 01:20:00
3:50 AM,60.8,59.0,94,29.89,6.2,South,3.5,-,N/A,,Mostly Cloudy,190,2012-10-31 01:50:00
4:20 AM,60.8,59.0,94,29.89,6.2,East,2.3,-,N/A,,Mostly Cloudy,100,2012-10-31 02:20:00
4:50 AM,62.6,60.8,94,29.89,6.2,Variable,3.5,-,N/A,,Mostly Cloudy,0,2012-10-31 02:50:00
5:20 AM,62.6,60.8,94,29.89,6.2,Variable,3.5,-,N/A,,Mostly Cloudy,0,2012-10-31 03:20:00
5:50 AM,62.6,60.8,94,29.89,6.2,Variable,2.3,-,N/A,,Mostly Cloudy,0,2012-10-31 03:50:00
6:20 AM,62.6,60.8,94,29.89,6.2,Calm,Calm,-,N/A,,Mostly Cloudy,0,2012-10-31 04:20:00
6:50 AM,62.6,60.8,94,29.92,6.2,Variable,3.5,-,N/A,,Mostly Cloudy,0,2012-10-31 04:50:00
7:20 AM,62.6,60.8,94,29.92,6.2,Variable,3.5,-,N/A,,Mostly Cloudy,0,2012-10-31 05:20:00
7:50 AM,66.2,62.6,88,29.92,6.2,Calm,Calm,-,N/A,,Mostly Cloudy,0,2012-10-31 05:50:00
8:00 AM,65,63,92,29.94,6,Calm,Calm,,,,Scattered Clouds,,2012-10-31 06:00:00
8:20 AM,68.0,62.6,83,29.92,6.2,Variable,1.2,-,N/A,,Mostly Cloudy,0,2012-10-31 06:20:00
8:50 AM,69.8,60.8,73,29.95,6.2,Variable,1.2,-,N/A,,Mostly Cloudy,0,2012-10-31 06:50:00
9:20 AM,69.8,60.8,73,29.95,6.2,Variable,2.3,-,N/A,,Mostly Cloudy,0,2012-10-31 07:20:00
9:50 AM,71.6,59.0,64,29.95,6.2,Calm,Calm,-,N/A,,Mostly Cloudy,0,2012-10-31 07:50:00
10:20 AM,71.6,59.0,64,29.95,6.2,Variable,2.3,-,N/A,,Mostly Cloudy,0,2012-10-31 08:20:00
10:50 AM,73.4,62.6,69,29.95,6.2,Variable,1.2,-,N/A,,Mostly Cloudy,0,2012-10-31 08:50:00
11:20 AM,73.4,62.6,69,29.95,6.2,Variable,2.3,-,N/A,,Mostly Cloudy,0,2012-10-31 09:20:00
11:50 AM,73.4,60.8,65,29.95,6.2,Variable,1.2,-,N/A,,Mostly Cloudy,0,2012-10-31 09:50:00
12:50 PM,75.2,60.8,61,29.95,6.2,Variable,3.5,-,N/A,,Mostly Cloudy,0,2012-10-31 10:50:00
1:20 PM,75.2,60.8,61,29.95,6.2,Variable,3.5,-,N/A,,Mostly Cloudy,0,2012-10-31 11:20:00
1:50 PM,73.4,62.6,69,29.95,6.2,Variable,3.5,-,N/A,,Mostly Cloudy,0,2012-10-31 11:50:00
2:00 PM,73,62,59,29.95,6,,3.5,,,,Scattered Clouds,,2012-10-31 12:00:00
2:20 PM,73.4,62.6,69,29.95,6.2,Variable,3.5,-,N/A,,Mostly Cloudy,0,2012-10-31 12:20:00
2:50 PM,73.4,62.6,69,29.92,6.2,Variable,3.5,-,N/A,,Mostly Cloudy,0,2012-10-31 12:50:00
3:20 PM,73.4,62.6,69,29.92,6.2,Variable,3.5,-,N/A,,Mostly Cloudy,0,2012-10-31 13:20:00
3:50 PM,75.2,59.0,57,29.92,6.2,Variable,2.3,-,N/A,,Scattered Clouds,0,2012-10-31 13:50:00
4:20 PM,75.2,59.0,57,29.92,6.2,Variable,2.3,-,N/A,,Scattered Clouds,0,2012-10-31 14:20:00
4:50 PM,71.6,60.8,69,29.92,6.2,Calm,Calm,-,N/A,,Partly Cloudy,0,2012-10-31 14:50:00
5:20 PM,71.6,60.8,69,29.92,6.2,Calm,Calm,-,N/A,,Partly Cloudy,0,2012-10-31 15:20:00
5:50 PM,66.2,59.0,78,29.95,6.2,Calm,Calm,-,N/A,,Partly Cloudy,0,2012-10-31 15:50:00
6:20 PM,66.2,59.0,78,29.95,6.2,Calm,Calm,-,N/A,,Partly Cloudy,0,2012-10-31 16:20:00
6:50 PM,64.4,57.2,77,29.95,6.2,South,3.5,-,N/A,,Partly Cloudy,180,2012-10-31 16:50:00
7:20 PM,64.4,57.2,77,29.95,6.2,South,3.5,-,N/A,,Partly Cloudy,180,2012-10-31 17:20:00
7:50 PM,62.6,57.2,82,29.95,6.2,South,3.5,-,N/A,,Partly Cloudy,190,2012-10-31 17:50:00
8:00 PM,63,58,77,29.97,6,South,3.5,,,,Scattered Clouds,190,2012-10-31 18:00:00
8:20 PM,62.6,57.2,82,29.95,6.2,South,3.5,-,N/A,,Partly Cloudy,190,2012-10-31 18:20:00
8:50 PM,62.6,57.2,82,29.98,6.2,South,3.5,-,N/A,,Partly Cloudy,190,2012-10-31 18:50:00
9:20 PM,62.6,57.2,82,29.98,6.2,South,3.5,-,N/A,,Partly Cloudy,190,2012-10-31 19:20:00
9:50 PM,60.8,57.2,88,29.98,6.2,Calm,Calm,-,N/A,,Scattered Clouds,0,2012-10-31 19:50:00
10:20 PM,60.8,57.2,88,29.98,6.2,Calm,Calm,-,N/A,,Scattered Clouds,0,2012-10-31 20:20:00
10:50 PM,60.8,57.2,88,29.98,6.2,Calm,Calm,-,N/A,,Scattered Clouds,0,2012-10-31 20:50:00
11:20 PM,60.8,57.2,88,29.98,6.2,Calm,Calm,-,N/A,,Scattered Clouds,0,2012-10-31 21:20:00
11:50 PM,60.8,57.2,88,29.98,6.2,Calm,Calm,-,N/A,,Scattered Clouds,0,2012-10-31 21:50:00